Weather History for Williams, AZ

Change the Weather History Date:

Monday, September 30, 2013

  Actual Average (KFLG) Record (KFLG)
Temperature  
Mean Temperature 53 °F 52 °F  
Max Temperature 71 °F 68 °F 83 °F (1980)
Min Temperature 35 °F 37 °F 24 °F (1907)
Degree Days  
Heating Degree Days 12 13  
Month to date heating degree days 230  
Since 1 July heating degree days 317  
Cooling Degree Days 0 0  
Month to date cooling degree days 3  
Year to date cooling degree days 117  
Growing Degree Days 3 (Base 50)    
Moisture  
Dew Point 23 °F    
Average Humidity 35    
Maximum Humidity 60    
Minimum Humidity 13    
Precipitation  
Precipitation 0.00 in 0.06 in 1.75 in (1983)
Month to date precipitation 2.38  
Year to date precipitation 16.57  
Snow  
Snow 0.00 in 0.00 in 0.00 in (2002)
Month to date snowfall T  
Since 1 July snowfall T  
Snow Depth -    
Sea Level Pressure  
Sea Level Pressure 30.28 in    
Wind  
Wind Speed 8 mph (South)    
Max Wind Speed 14 mph    
Max Gust Speed 17 mph    
Visibility 10 miles    
Events      
T = Trace of Precipitation, MM = Missing Value Source: NWS Daily Summary

Daily Weather History Graph

Daily Weather History Graph

Search for Another Location

Airport:

Trip Planner

Search our weather history database for the weather conditions in past years. The results will help you decide how hot, cold, wet, or windy it might be!

Date:

Astronomy

Sep. 30, 2013 Rise Set
Actual Time 6:23 AM MST 6:13 PM MST
Civil Twilight 5:57 AM MST 6:38 PM MST
Nautical Twilight 5:28 AM MST 7:08 PM MST
Astronomical Twilight 4:58 AM MST 7:37 PM MST
Moon 2:11 AM MST (9/30) 3:39 PM MST (9/30)
Length of Visible Light 12h 41m
Length of Day
11h 50m
Waning Crescent, 18% of the Moon is Illuminated
Sep 30
Waning Crescent
Oct 4
New
Oct 11
First Quarter
Oct 18
Full
Oct 26
Last Quarter

Hourly Weather History & Observations

Time (MST) Temp. Windchill Dew Point Humidity Pressure Visibility Wind Dir Wind Speed Gust Speed Precip Events Conditions
12:15 AM 39.2 °F 34.2 °F 23.0 °F 52% 30.33 in 10.0 mi SSE 6.9 mph - N/A   Clear
12:35 AM 39.2 °F 33.0 °F 24.8 °F 56% 30.33 in 10.0 mi SSE 9.2 mph - N/A   Clear
12:55 AM 39.2 °F 33.6 °F 24.8 °F 56% 30.33 in 10.0 mi SSE 8.1 mph - N/A   Unknown
1:15 AM 37.4 °F 31.4 °F 23.0 °F 56% 30.33 in 10.0 mi SSE 8.1 mph - N/A   Clear
1:35 AM 37.4 °F 32.1 °F 23.0 °F 56% 30.32 in 10.0 mi SE 6.9 mph - N/A   Clear
1:55 AM 37.4 °F 32.1 °F 23.0 °F 56% 30.32 in 10.0 mi SE 6.9 mph - N/A   Clear
2:15 AM 37.4 °F 32.1 °F 23.0 °F 56% 30.31 in 10.0 mi SE 6.9 mph - N/A   Clear
2:35 AM 37.4 °F 30.8 °F 23.0 °F 56% 30.31 in 10.0 mi SSE 9.2 mph - N/A   Clear
2:55 AM 37.4 °F 30.8 °F 23.0 °F 56% 30.30 in 10.0 mi SSE 9.2 mph - N/A   Clear
3:15 AM 35.6 °F 28.6 °F 23.0 °F 60% 30.30 in 10.0 mi SSE 9.2 mph - N/A   Clear
3:35 AM 37.4 °F 30.8 °F 23.0 °F 56% 30.29 in 10.0 mi SSE 9.2 mph - N/A   Clear
3:55 AM 35.6 °F 27.5 °F 23.0 °F 60% 30.29 in 10.0 mi SSE 11.5 mph - N/A   Clear
4:15 AM 37.4 °F 30.3 °F 23.0 °F 56% 30.29 in 10.0 mi SSE 10.4 mph - N/A   Clear
4:35 AM 37.4 °F 30.3 °F 23.0 °F 56% 30.29 in 10.0 mi SSE 10.4 mph - N/A   Clear
4:55 AM 39.2 °F 33.6 °F 23.0 °F 52% 30.28 in 10.0 mi SSE 8.1 mph - N/A   Clear
5:15 AM 37.4 °F 30.8 °F 23.0 °F 56% 30.29 in 10.0 mi SSE 9.2 mph - N/A   Clear
5:35 AM 37.4 °F 30.3 °F 23.0 °F 56% 30.28 in 10.0 mi SSE 10.4 mph - N/A   Clear
5:55 AM 37.4 °F 29.8 °F 23.0 °F 56% 30.29 in 10.0 mi SSE 11.5 mph - N/A   Clear
6:15 AM 39.2 °F 32.5 °F 23.0 °F 52% 30.28 in 10.0 mi SSE 10.4 mph - N/A   Clear
6:35 AM 37.4 °F 30.3 °F 23.0 °F 56% 30.29 in 10.0 mi SSE 10.4 mph - N/A   Clear
6:55 AM 37.4 °F 31.4 °F 23.0 °F 56% 30.28 in 10.0 mi SSE 8.1 mph - N/A   Clear
7:15 AM 39.2 °F 32.0 °F 23.0 °F 52% 30.29 in 10.0 mi SSE 11.5 mph - N/A   Clear
7:35 AM 42.8 °F 37.5 °F 23.0 °F 46% 30.30 in 10.0 mi SSE 9.2 mph - N/A   Clear
7:55 AM 46.4 °F 42.9 °F 24.8 °F 43% 30.30 in 10.0 mi SE 6.9 mph - N/A   Clear
8:15 AM 53.6 °F - 26.6 °F 35% 30.31 in 10.0 mi SSE 4.6 mph - N/A   Clear
8:35 AM 57.2 °F - 26.6 °F 31% 30.31 in 10.0 mi SSE 4.6 mph - N/A   Clear
8:55 AM 60.8 °F - 24.8 °F 25% 30.32 in 10.0 mi Calm Calm - N/A   Clear
9:15 AM 62.6 °F - 17.6 °F 18% 30.32 in 10.0 mi SW 4.6 mph - N/A   Clear
9:35 AM 64.4 °F - 19.4 °F 18% 30.32 in 10.0 mi SW 8.1 mph - N/A   Clear
9:55 AM 64.4 °F - 19.4 °F 18% 30.32 in 10.0 mi SW 5.8 mph - N/A   Clear
10:15 AM 66.2 °F - 19.4 °F 17% 30.32 in 10.0 mi WSW 6.9 mph - N/A   Clear
10:35 AM 66.2 °F - 21.2 °F 18% 30.31 in 10.0 mi SW 8.1 mph - N/A   Clear
10:55 AM 66.2 °F - 19.4 °F 17% 30.31 in 10.0 mi WSW 8.1 mph - N/A   Clear
11:15 AM 68.0 °F - 19.4 °F 16% 30.31 in 10.0 mi WSW 6.9 mph - N/A   Clear
11:35 AM 68.0 °F - 19.4 °F 16% 30.30 in 10.0 mi WSW 10.4 mph - N/A   Clear
11:55 AM 68.0 °F - 19.4 °F 16% 30.30 in 10.0 mi WSW 11.5 mph - N/A   Clear
12:15 PM 68.0 °F - 19.4 °F 16% 30.29 in 10.0 mi SW 9.2 mph - N/A   Clear
12:35 PM 68.0 °F - 19.4 °F 16% 30.28 in 10.0 mi WSW 10.4 mph 16.1 mph N/A   Clear
12:55 PM 69.8 °F - 19.4 °F 15% 30.27 in 10.0 mi West 10.4 mph - N/A   Clear
1:15 PM 69.8 °F - 23.0 °F 17% 30.27 in 10.0 mi WSW 11.5 mph - N/A   Clear
1:35 PM 69.8 °F - 23.0 °F 17% 30.26 in 10.0 mi West 10.4 mph - N/A   Clear
1:55 PM 71.6 °F - 23.0 °F 16% 30.26 in 10.0 mi West 10.4 mph 17.3 mph N/A   Clear
2:15 PM 71.6 °F - 23.0 °F 16% 30.26 in 10.0 mi WSW 9.2 mph 17.3 mph N/A   Clear
2:35 PM 71.6 °F - 21.2 °F 15% 30.25 in 10.0 mi West 13.8 mph - N/A   Clear
2:55 PM 71.6 °F - 17.6 °F 13% 30.25 in 10.0 mi West 11.5 mph 17.3 mph N/A   Clear
3:15 PM 71.6 °F - 21.2 °F 15% 30.25 in 10.0 mi WSW 13.8 mph 17.3 mph N/A   Clear
3:35 PM 71.6 °F - 23.0 °F 16% 30.24 in 10.0 mi West 9.2 mph - N/A   Clear
3:55 PM 71.6 °F - 23.0 °F 16% 30.24 in 10.0 mi West 9.2 mph - N/A   Clear
4:15 PM 71.6 °F - 23.0 °F 16% 30.24 in 10.0 mi SW 9.2 mph - N/A   Clear
4:35 PM 71.6 °F - 23.0 °F 16% 30.23 in 10.0 mi WSW 8.1 mph - N/A   Clear
4:55 PM 69.8 °F - 23.0 °F 17% 30.23 in 10.0 mi SW 9.2 mph - N/A   Clear
5:15 PM 69.8 °F - 23.0 °F 17% 30.23 in 10.0 mi SSW 8.1 mph - N/A   Clear
5:35 PM 68.0 °F - 23.0 °F 18% 30.23 in 10.0 mi SSW 8.1 mph 16.1 mph N/A   Clear
5:55 PM 66.2 °F - 23.0 °F 19% 30.23 in 10.0 mi SSW 6.9 mph - N/A   Clear
6:15 PM 64.4 °F - 23.0 °F 21% 30.23 in 10.0 mi SSW 8.1 mph - N/A   Clear
6:35 PM 60.8 °F - 23.0 °F 23% 30.23 in 10.0 mi SSW 6.9 mph - N/A   Clear
6:55 PM 59.0 °F - 23.0 °F 25% 30.23 in 10.0 mi SSW 8.1 mph - N/A   Clear
7:15 PM 59.0 °F - 24.8 °F 27% 30.23 in 10.0 mi South 9.2 mph - N/A   Clear
7:35 PM 59.0 °F - 23.0 °F 25% 30.24 in 10.0 mi SSW 8.1 mph - N/A   Clear
7:55 PM 57.2 °F - 24.8 °F 29% 30.24 in 10.0 mi SSW 6.9 mph - N/A   Clear
8:15 PM 57.2 °F - 24.8 °F 29% 30.24 in 10.0 mi SW 6.9 mph - N/A   Clear
8:35 PM 57.2 °F - 23.0 °F 27% 30.25 in 10.0 mi SW 5.8 mph - N/A   Clear
8:55 PM 50.0 °F - 24.8 °F 37% 30.25 in 10.0 mi South 4.6 mph - N/A   Clear
9:15 PM 48.2 °F - 24.8 °F 40% 30.25 in 10.0 mi SE 5.8 mph - N/A   Clear
9:35 PM 46.4 °F 42.9 °F 24.8 °F 43% 30.26 in 10.0 mi SSE 6.9 mph - N/A   Clear
9:55 PM 46.4 °F 45.2 °F 24.8 °F 43% 30.25 in 10.0 mi South 3.5 mph - N/A   Clear
10:15 PM 42.8 °F 38.0 °F 24.8 °F 49% 30.25 in 10.0 mi SSE 8.1 mph - N/A   Clear
10:35 PM 42.8 °F 38.6 °F 24.8 °F 49% 30.26 in 6.0 mi SSE 6.9 mph - N/A   Clear
10:55 PM 42.8 °F 38.6 °F 24.8 °F 49% 30.26 in 3.0 mi SE 6.9 mph - N/A   Clear
11:15 PM 41.0 °F 35.2 °F 24.8 °F 53% 30.26 in 3.0 mi SSE 9.2 mph - N/A   Clear
11:35 PM 39.2 °F 33.0 °F 24.8 °F 56% 30.26 in 5.0 mi SSE 9.2 mph - N/A   Clear
11:55 PM 41.0 °F 35.8 °F 24.8 °F 53% 30.25 in 6.0 mi SSE 8.1 mph - N/A   Clear